Regional Weather Roundup
Issued by NWS

Home | Current Version | Previous Version | Text Only | Print | Product List | Glossary On
Versions: 1 2 3 4 5 6 7 8 9 10 11 12 13 14 15 16 17 18 19 20 21 22 23 24 25 26 27
000
ASUS45 KREV 181910
RWRNV
NEVADA REGIONAL WEATHER ROUNDUP
NATIONAL WEATHER SERVICE RENO NV
1100 AM PST WED JAN 18 2017

NOTE: "FAIR" INDICATES FEW OR NO CLOUDS BELOW 12,000 FEET WITH NO
SIGNIFICANT WEATHER AND/OR OBSTRUCTIONS TO VISIBILITY.

NVZ001-003-004-182000-
WESTERN NEVADA

CITY           SKY/WX    TMP DP  RH WIND       PRES   REMARKS
RENO           CLOUDY    38  28  67 NE5       29.88F
CARSON CITY    CLOUDY    36  28  75 E14       29.90F
MINDEN         FAIR      41  32  70 NE5       29.89F
PYRAMID LAKE     N/A     36 N/A N/A SE6         N/A
FALLON         CLOUDY    33  28  81 NW7       29.91F
LOVELOCK       CLOUDY    33  29  85 CALM      29.94S
HAWTHORNE        N/A    N/A N/A N/A MISG        N/A
$$

NVZ002-CAZ072-073-182000-
NORTHERN AND CENTRAL SIERRA

CITY           SKY/WX    TMP DP  RH WIND       PRES   REMARKS
S. LAKE TAHOE  LGT RAIN  42  36  79 S14G21    29.92F
TRUCKEE        CLOUDY    39  34  81 SW13G25   29.94S
SQUAW VLY 8000   N/A     32  32 100 SW13        N/A
SUSANVILLE     LGT RAIN  36  32  87 W6        29.90S
MAMMOTH LAKES  FAIR      32  19  60 SE9       30.01F
BRIDGEPORT       N/A     43  32  65 S20G31    29.91F
$$

NVZ030-031-036-182000-
NORTHERN NEVADA

CITY           SKY/WX    TMP DP  RH WIND       PRES   REMARKS
ELKO           CLOUDY    19   9  65 NE8       30.02F
WINNEMUCCA     CLOUDY    34  24  67 NE6       29.93R
WENDOVER       CLOUDY    23  16  74 CALM      30.13F
$$

NVZ035-037-182000-
CENTRAL NEVADA

CITY           SKY/WX    TMP DP  RH WIND       PRES   REMARKS
ELY            CLOUDY    31  14  49 SE8       30.03F
EUREKA           N/A     31  17  56 S7        30.00F
$$

NVZ013-014-182000-
SOUTH CENTRAL NEVADA

CITY           SKY/WX    TMP DP  RH WIND       PRES   REMARKS
TONOPAH        CLOUDY    35  16  45 SE6       30.04F
$$

NVZ017-020-022-182000-
SOUTHERN NEVADA

CITY           SKY/WX    TMP DP  RH WIND       PRES   REMARKS
LAS VEGAS      MOSUNNY   51  20  29 NE5       30.13F
N. LAS VEGAS   SUNNY     49  22  34 E6        30.13F
NELLIS AFB     SUNNY     48  26  42 CALM      30.14F
HENDERSON      SUNNY     50  20  30 CALM      30.15F
MERCURY        SUNNY     49  19  30 CALM      30.10F
$$




USA.gov is the U.S. government's official web portal to all federal, state and local government web resources and services.